Wind_Speed
16 18 19 18 16 15 14 12 12 16 22 24 24 23 22 21 18 15 13 11 8 7 8 9 9 9 9 8 9 9 9 8 8 9 11 12 13 14 14 14 14 14 14 13 13 13 14 14 14 15 15 15 15 16 17 18 18 19 20 21 22 23 25 26 28 29 30 30 30 30 30 30 29 29 29 28 28 27 27 27 27 27 27 27 26
15 17 18 17 16 15 15 14 15 19 23 24 23 23 22 21 18 16 14 12 9 9 10 10 10 10 9 9 10 10 9 8 8 10 11 12 13 14 14 14 13 13 13 13 13 13 13 14 14 14 14 14 15 16 16 17 18 18 19 20 22 23 24 26 27 27 28 29 29 30 29 29 28 28 28 28 28 28 27 27 27 27 27 27 27
15 16 17 17 17 17 17 17 19 22 24 24 23 23 22 21 19 16 14 12 10 10 11 10 10 10 10 10 11 11 10 9 9 10 11 12 13 13 13 13 13 13 13 13 12 13 13 13 13 14 14 14 15 15 16 16 17 18 19 20 21 22 24 25 25 26 27 27 28 28 28 29 28 28 28 29 29 29 28 28 28 28 28 28 28
16 17 17 17 17 17 17 17 20 23 24 24 23 22 22 21 19 16 15 13 11 11 11 11 11 11 11 11 12 11 11 10 9 10 11 12 12 13 13 12 12 12 12 12 12 12 13 13 13 13 14 14 15 15 16 16 17 17 19 20 21 22 23 24 25 26 26 26 27 27 27 28 28 29 30 30 30 29 29 29 29 29 29 29 29
18 18 19 18 18 18 17 18 21 23 25 25 24 22 22 21 19 17 15 14 12 12 12 11 11 11 12 12 12 12 11 10 10 11 12 12 12 13 13 12 12 12 12 12 12 12 13 13 13 13 14 14 15 15 16 16 16 17 18 19 21 22 23 24 24 25 25 26 26 26 27 27 27 28 29 29 28 28 29 30 30 29 29 30 30
20 20 20 20 19 19 19 20 22 24 25 25 24 22 22 21 19 18 16 14 13 13 13 12 12 12 13 13 13 13 12 11 10 11 12 13 13 13 12 12 12 12 11 11 11 12 12 12 13 13 14 14 15 15 15 16 16 16 18 19 20 22 23 23 23 24 24 25 25 25 26 26 27 28 28 28 28 28 29 29 30 30 29 30 30
21 21 23 22 20 20 20 21 23 24 25 25 24 23 22 21 20 19 17 16 14 14 14 13 13 13 13 14 14 13 12 11 11 12 13 13 13 13 12 11 11 11 11 11 11 11 12 12 13 13 14 14 14 15 15 15 15 16 17 19 20 21 22 22 22 23 23 23 23 24 24 25 26 27 28 28 28 29 30 30 30 30 30 31 31
21 22 23 21 20 20 21 21 23 25 25 25 24 23 22 22 21 20 18 17 15 15 14 14 14 14 14 15 15 14 13 12 12 13 13 13 13 13 12 11 10 10 10 10 11 11 11 12 13 13 13 14 14 14 14 14 14 15 16 17 19 20 20 21 21 22 22 21 21 23 23 23 25 26 26 26 28 30 31 32 32 32 31 31 31
21 21 20 19 18 20 21 22 24 25 25 25 24 24 23 22 22 20 19 17 16 16 15 14 14 15 15 16 15 14 13 12 12 13 13 13 13 13 11 10 9 9 9 10 10 11 11 12 13 13 13 13 13 13 13 13 13 14 15 16 18 18 19 19 20 20 21 20 21 22 22 23 24 24 25 26 28 30 30 30 31 32 31 31 30
21 20 19 18 18 20 21 23 24 24 25 24 24 24 23 23 22 21 19 18 17 17 16 15 15 16 17 17 16 15 14 13 13 13 13 13 13 12 11 10 9 8 9 9 10 11 12 12 13 13 13 13 13 13 12 12 12 13 14 15 16 17 17 18 19 19 19 19 21 21 22 23 25 25 26 27 28 29 29 30 30 30 30 29 30
21 21 20 18 18 20 22 24 24 24 24 23 23 23 23 23 22 21 19 18 18 17 16 16 16 17 18 17 16 15 14 13 13 13 13 13 12 11 10 9 8 8 8 9 10 11 12 13 13 12 12 13 13 13 12 11 11 12 14 15 16 16 16 17 18 18 18 19 20 21 22 23 25 25 26 27 28 29 29 30 30 30 30 31 31
22 22 21 20 19 20 23 25 25 24 24 23 23 24 24 24 22 21 19 19 19 18 17 17 18 18 18 18 16 15 14 14 13 13 13 13 12 11 10 9 8 7 8 9 10 11 12 13 13 12 12 12 12 12 11 11 11 12 13 14 15 15 15 16 17 17 18 19 20 20 21 23 24 24 25 27 28 28 29 29 29 30 31 32 32
23 23 23 22 21 21 24 26 26 25 24 24 24 25 25 25 23 21 20 19 20 19 18 19 19 19 19 18 16 15 14 14 13 14 13 13 12 11 10 9 8 7 8 8 10 11 12 13 13 12 12 12 12 12 11 10 10 11 12 13 14 14 14 15 16 16 17 18 19 20 20 22 23 24 25 26 27 27 28 29 30 30 30 30 30
24 24 24 23 22 22 24 27 27 26 25 25 26 27 27 25 23 22 21 21 21 20 20 20 20 20 19 18 16 15 14 14 14 14 14 13 13 11 10 9 8 7 7 8 9 11 12 12 12 12 12 11 11 11 10 10 10 11 11 12 13 13 13 14 15 16 16 18 19 19 20 21 22 24 25 25 26 27 28 28 29 28 28 29 29
24 25 26 25 23 23 24 27 28 27 26 27 28 28 27 25 24 23 22 22 21 21 20 21 21 20 19 17 16 15 14 14 15 15 14 14 13 11 10 9 8 7 7 8 9 11 12 12 12 12 11 11 11 10 10 9 10 10 11 11 12 12 13 13 14 15 16 17 18 19 20 21 22 24 24 25 26 27 27 27 27 26 27 28 28
25 26 28 27 25 24 24 26 28 28 29 29 28 27 26 25 25 25 24 22 21 21 21 22 21 20 19 18 16 15 15 15 15 15 15 14 13 11 10 9 8 7 7 8 10 11 12 12 12 11 11 11 10 10 9 9 9 9 10 10 11 11 12 13 13 14 15 16 17 18 18 20 21 22 23 24 25 25 25 24 24 24 25 26 27
27 28 29 29 27 25 24 25 27 29 29 28 27 26 26 26 26 25 24 22 22 22 22 22 22 20 19 18 17 16 15 15 16 15 15 14 13 11 10 9 8 7 7 8 10 11 12 11 11 11 11 10 10 9 8 7 8 8 9 9 9 10 11 11 12 13 14 15 16 16 17 19 20 21 21 22 22 22 21 21 22 23 25 26 26
27 29 31 31 28 25 24 25 27 27 26 25 26 26 27 27 27 25 23 22 23 23 23 23 21 20 19 19 18 17 16 16 16 16 15 15 13 11 10 10 9 8 8 8 10 11 11 11 11 10 10 10 10 9 7 6 7 7 8 8 8 9 9 10 11 11 12 13 15 16 17 18 19 19 20 20 20 20 20 21 22 23 25 26 27
27 30 32 31 28 25 24 25 26 25 24 24 24 24 26 27 26 25 23 23 23 23 23 23 21 20 20 19 18 17 17 17 17 16 16 15 13 11 11 10 9 9 9 9 10 11 11 11 10 10 10 10 10 8 7 6 6 6 6 7 7 7 8 9 9 10 11 13 14 14 15 17 17 18 18 19 19 20 21 22 23 24 25 26 27
26 29 29 27 26 25 25 27 27 25 23 22 21 23 25 26 25 25 25 25 24 24 23 23 22 21 20 19 19 18 18 17 17 17 16 14 13 12 11 11 10 10 10 10 10 10 10 10 10 9 10 10 10 8 7 5 5 5 5 5 6 6 7 7 8 9 10 12 12 13 14 15 16 16 17 18 19 20 21 22 23 24 25 26 27
25 26 25 25 26 28 27 27 27 25 22 21 21 22 24 25 25 27 29 29 26 25 24 23 22 22 21 20 20 19 19 18 17 17 16 14 13 12 12 11 11 11 11 10 10 10 10 10 10 9 9 9 9 8 7 6 5 5 4 4 5 5 5 6 7 8 9 10 11 12 13 14 15 15 16 17 18 19 20 21 22 23 24 25 26
22 23 23 25 28 29 28 27 28 26 22 21 21 21 23 24 22 23 28 31 29 26 26 24 23 23 22 21 21 20 19 19 18 17 16 14 13 13 13 12 12 12 12 11 10 10 10 10 10 9 9 9 9 8 7 6 5 4 3 3 3 4 4 4 5 6 7 9 10 11 12 12 13 14 15 16 17 18 19 20 21 22 24 25 26
18 20 23 27 28 27 27 26 26 23 19 18 18 19 21 23 21 20 23 29 31 29 27 26 25 24 23 22 21 20 20 19 18 17 16 15 14 14 14 13 13 13 12 11 10 10 10 10 10 10 10 9 8 8 7 6 5 4 3 2 2 2 2 3 3 5 6 7 8 10 11 11 12 13 14 15 16 17 19 20 21 22 23 24 25
16 18 21 25 27 25 24 25 23 19 14 14 17 19 20 21 22 22 23 27 30 31 29 26 25 24 22 22 21 20 20 19 18 17 16 15 15 15 15 14 14 14 13 11 11 11 10 11 11 11 10 10 9 8 7 6 5 4 4 3 2 1 1 1 2 3 5 6 7 8 9 10 11 12 13 15 16 17 18 19 20 21 22 23 25
14 15 17 21 24 22 22 22 21 18 16 16 18 20 22 23 24 25 25 27 29 32 32 28 25 23 22 22 21 21 20 20 19 18 17 16 16 16 15 15 15 14 13 12 11 11 11 11 11 11 11 10 9 8 7 7 6 5 4 4 3 2 2 1 0 1 3 4 6 7 8 9 10 11 13 14 15 16 18 19 20 21 22 23 23
11 14 16 17 19 20 20 19 18 18 18 19 20 21 23 23 23 23 23 23 27 33 34 28 24 23 22 22 22 21 21 20 19 19 18 17 17 17 16 16 15 15 13 12 12 12 11 11 12 12 11 10 9 9 8 7 7 6 5 5 4 4 3 3 2 1 2 3 4 5 6 8 9 11 12 13 14 16 17 18 19 20 21 22 23
9 14 18 18 18 19 19 18 17 17 18 19 20 20 20 21 21 22 21 21 25 32 33 28 24 23 22 22 22 21 21 21 20 19 18 18 18 18 18 17 16 15 14 12 12 12 12 12 12 12 12 11 10 9 9 8 8 7 7 6 6 5 5 4 3 2 2 2 3 4 5 7 9 10 11 13 14 15 16 18 19 20 21 22 23
10 14 18 19 18 17 16 15 15 17 18 19 19 19 20 21 21 23 23 23 27 32 31 26 23 22 21 22 23 22 21 20 18 18 19 19 19 20 19 18 17 16 14 13 13 12 13 13 13 13 12 12 11 10 10 9 9 8 8 7 7 7 6 5 4 4 3 3 3 4 5 6 8 10 11 13 14 15 16 17 18 19 20 21 22
13 14 16 17 17 16 15 14 15 17 19 19 19 18 19 21 22 24 26 27 30 32 29 24 22 23 24 24 25 23 21 19 19 20 21 22 22 22 21 19 17 16 15 13 13 13 13 14 14 14 13 12 12 11 11 10 10 10 9 9 8 8 7 6 6 5 5 5 5 5 6 6 8 10 11 13 14 15 16 17 18 19 20 21 21
12 12 13 14 14 13 13 13 15 17 19 18 17 17 18 20 21 24 26 26 27 29 28 25 24 25 27 27 27 24 23 23 24 25 25 25 25 24 21 19 17 16 15 14 14 14 14 15 15 15 14 13 13 12 12 11 11 10 10 10 10 9 8 8 7 7 7 7 7 7 7 7 8 10 11 13 14 15 16 17 18 19 20 20 21
12 11 11 12 11 11 12 14 17 18 18 17 16 16 16 17 18 20 22 22 22 24 26 25 26 27 28 28 27 26 26 27 27 27 27 27 26 24 22 19 18 17 16 16 15 15 15 15 16 16 15 14 14 13 13 12 12 12 11 11 11 11 10 9 9 9 9 9 9 9 9 9 10 10 12 13 14 16 17 18 19 19 20 20 21
14 13 12 12 12 13 14 16 18 18 17 16 16 16 16 16 16 18 21 22 22 22 23 25 26 27 27 27 26 26 27 27 27 27 27 27 26 24 22 20 19 19 18 16 16 16 16 16 16 16 16 16 15 14 14 14 13 13 12 12 13 12 12 11 11 11 11 11 11 11 11 11 12 12 13 14 15 16 17 18 19 20 21 21 22
16 15 15 15 15 15 16 17 17 17 16 17 18 18 17 16 16 17 20 23 22 21 22 24 25 26 27 26 26 26 26 27 28 28 28 27 25 23 21 20 20 20 18 17 17 17 17 17 17 17 17 17 16 15 15 15 14 14 14 14 14 14 13 13 13 13 13 13 13 13 13 13 14 14 15 15 16 17 18 19 20 21 22 22 23
16 16 16 15 15 14 14 16 16 17 18 19 19 18 17 16 16 17 20 23 24 23 23 24 25 26 26 25 25 25 26 27 28 28 28 27 26 23 21 21 22 21 20 19 18 18 17 17 17 18 18 18 18 17 16 16 16 15 15 15 15 15 15 15 15 15 15 15 15 15 15 15 16 16 17 17 18 19 20 20 21 22 22 23 23
15 15 15 15 14 13 13 14 15 16 17 17 16 15 16 16 16 16 18 22 24 25 24 25 27 27 27 25 24 25 26 26 27 28 28 27 26 24 23 23 22 21 20 20 19 19 19 19 19 19 19 19 19 18 18 17 17 17 17 17 16 17 17 17 17 17 17 17 17 17 18 18 18 19 19 20 20 21 21 22 22 23 23 24 24
15 14 14 13 13 14 14 14 14 14 14 14 15 17 17 16 15 16 20 23 25 25 25 27 28 29 28 27 26 25 25 25 26 27 28 27 27 25 23 22 22 22 21 20 19 19 20 20 20 20 20 20 20 20 19 18 18 18 18 18 18 18 18 18 18 18 18 19 19 20 20 20 21 21 22 22 23 23 23 23 24 24 25 25 25
14 14 13 13 13 14 15 16 16 16 17 17 18 18 18 18 17 18 21 25 26 26 26 28 29 29 28 27 27 26 26 25 26 27 28 28 26 24 23 22 22 22 22 21 20 20 21 22 22 22 22 21 22 21 21 20 19 19 20 20 20 20 20 20 20 20 20 21 21 22 22 22 23 23 24 24 25 25 25 25 25 26 26 27 27
14 14 14 14 15 15 17 18 18 18 18 18 17 17 18 18 19 20 22 25 27 28 27 28 29 29 28 27 28 28 27 27 27 27 27 27 25 24 23 22 22 22 22 21 20 21 22 22 23 23 23 22 23 23 22 22 21 21 21 21 21 21 21 21 21 22 22 23 23 24 24 24 25 25 26 26 27 27 28 28 28 28 28 28 29
14 15 15 16 15 15 17 18 18 17 16 16 16 17 17 18 20 23 24 26 28 29 29 28 28 29 29 29 29 29 29 28 27 26 26 26 25 24 24 23 22 23 23 22 22 22 22 23 24 24 24 24 24 24 23 23 23 22 22 22 22 22 23 23 23 23 24 24 25 25 26 26 27 28 28 28 29 29 29 29 30 30 30 30 30
17 17 16 17 17 16 17 17 17 16 16 15 15 17 18 18 20 23 26 27 28 29 29 27 27 28 29 29 30 30 29 28 27 27 27 28 28 28 27 26 25 25 25 24 24 23 23 24 25 25 25 25 25 25 24 24 24 24 24 24 24 24 24 25 25 25 26 26 26 27 28 28 29 29 30 30 31 31 31 31 31 32 32 32 32
20 19 17 16 17 17 17 16 15 15 15 14 14 16 18 19 21 23 26 27 27 27 28 27 28 31 32 31 30 30 29 29 30 31 32 32 32 31 31 29 28 27 26 26 26 26 26 26 26 26 26 26 26 26 25 25 24 25 25 25 25 25 25 26 26 27 28 28 28 29 29 30 31 31 31 32 33 33 33 33 33 33 34 34 34
23 23 22 21 20 20 19 19 17 17 17 17 16 16 17 19 22 24 26 26 27 27 27 27 30 32 33 31 31 31 31 31 32 33 34 34 33 33 32 31 30 28 28 28 29 29 29 29 28 28 27 27 27 27 26 25 25 25 26 26 26 26 26 27 28 29 29 30 30 30 31 31 32 33 33 33 34 35 35 35 35 35 35 35 35
24 25 25 25 24 23 23 21 19 18 20 21 21 21 19 19 23 27 27 27 27 27 26 26 29 32 33 32 32 33 33 32 33 33 33 33 32 32 32 32 31 30 29 30 30 30 30 30 30 29 28 28 27 27 26 26 26 26 27 27 27 27 27 28 29 30 30 31 31 32 32 33 33 34 34 35 35 36 36 37 37 37 37 37 37
24 25 26 26 27 26 24 22 19 19 20 20 21 21 20 20 23 27 28 28 27 26 24 25 29 33 34 34 34 34 33 32 32 32 32 32 32 32 33 33 33 33 32 31 31 31 30 29 29 29 28 28 28 27 27 27 27 27 28 28 28 28 28 29 29 30 32 32 33 33 33 34 35 35 36 36 37 37 38 38 38 38 38 38 38
21 21 21 23 24 24 23 22 21 20 19 18 17 16 15 16 19 23 26 28 28 27 25 26 29 33 36 36 36 36 35 34 33 33 33 33 33 34 34 34 34 33 31 31 31 31 30 28 27 27 27 27 27 27 27 27 28 28 28 29 29 28 28 29 30 31 32 33 34 34 35 36 36 37 37 37 38 39 39 39 39 39 39 38 38
18 17 18 19 21 23 24 23 21 19 18 17 17 17 18 18 19 21 23 26 28 29 29 28 30 33 36 38 38 37 36 36 35 35 35 35 35 34 34 33 31 30 29 30 31 32 30 27 25 25 25 26 27 27 27 27 27 28 28 29 30 29 29 30 31 32 33 33 35 36 37 38 38 38 38 38 39 39 39 39 38 38 38 38 37
18 18 18 20 22 24 25 24 21 19 17 17 19 21 23 24 24 23 24 25 27 29 30 31 32 34 37 39 39 38 37 36 36 36 36 35 33 32 32 31 29 29 29 29 29 29 27 25 25 26 26 26 27 26 26 27 27 28 29 31 31 31 31 32 32 32 33 34 35 37 38 38 39 38 38 38 38 38 38 37 37 36 36 36 36
19 20 21 22 23 25 26 24 22 21 21 20 20 21 24 25 25 25 24 25 26 28 30 32 33 34 37 39 40 39 38 38 38 37 37 36 34 32 31 30 29 28 27 26 25 25 25 25 25 26 25 25 25 25 26 27 28 29 30 31 32 33 32 32 32 33 34 35 37 38 38 39 39 38 38 37 36 36 36 36 36 36 36 37 37
19 20 22 23 24 23 23 23 24 24 23 22 21 22 23 23 22 22 22 24 25 28 29 30 32 34 36 39 40 40 40 38 37 37 37 36 35 33 32 30 28 25 23 23 23 24 24 24 24 24 23 24 24 25 26 26 27 28 29 30 31 31 32 32 33 34 36 37 38 38 38 38 38 37 36 36 36 36 36 37 38 38 39 40 40
20 20 21 24 25 25 25 27 28 27 24 21 21 22 22 21 20 21 22 24 26 28 29 29 31 34 36 38 39 40 40 39 38 38 37 36 34 32 30 28 27 25 23 23 24 24 24 23 23 23 23 23 23 24 24 25 26 27 29 29 30 31 32 33 34 35 36 37 37 37 37 37 36 36 35 35 36 37 38 39 40 40 41 42 43
21 20 19 20 23 26 27 27 26 23 21 21 22 22 21 20 20 21 23 24 26 28 29 30 31 34 36 38 39 40 39 38 37 35 34 32 31 29 28 27 25 24 23 23 23 22 22 23 23 23 23 23 23 23 24 25 27 28 29 30 32 33 33 34 34 34 34 35 35 35 35 35 36 36 37 37 38 39 40 41 41 41 42 43 44
Wind_Direction
218 210 206 208 210 212 215 218 220 212 204 203 205 207 211 212 213 218 226 232 238 248 255 256 256 262 269 276 284 291 301 314 325 328 330 334 336 335 337 339 341 346 349 351 354 356 359 3 5 5 3 3 5 5 4 4 5 4 4 4 4 5 7 9 8 8 7 6 5 4 3 3 3 3 3 3 4 3 2 360 358 355 354 353 352
214 210 205 205 209 214 216 215 213 209 206 205 206 208 211 211 213 220 228 233 237 247 254 256 258 264 270 277 283 289 299 311 318 320 324 330 331 332 334 336 339 344 348 351 354 355 358 1 2 1 0 2 4 4 3 3 4 4 4 6 6 7 10 11 11 10 8 6 4 3 3 4 5 5 6 7 7 7 7 5 4 2 360 358 357
216 217 211 210 213 220 221 212 207 210 210 208 207 208 209 210 213 221 229 234 238 246 253 255 259 265 271 277 282 287 296 306 310 313 319 324 326 327 330 333 336 342 347 351 352 354 357 359 359 358 358 1 3 2 1 1 2 4 5 6 7 8 11 12 11 11 10 8 6 4 3 4 5 7 9 10 9 9 9 9 8 7 5 4 3
221 220 215 214 216 222 224 213 209 213 211 208 208 208 208 211 215 223 231 235 238 245 251 255 259 265 272 278 282 287 293 300 304 306 312 317 320 322 325 329 334 341 347 350 350 353 355 355 354 354 356 359 0 360 359 359 1 3 5 6 7 10 12 12 12 11 10 8 7 6 6 7 7 9 11 12 10 10 11 12 13 11 9 9 8
223 219 215 216 217 220 223 219 216 215 211 209 209 208 209 212 217 225 232 236 239 244 249 254 258 264 272 278 282 285 288 294 299 301 305 311 315 318 320 326 332 340 345 347 349 351 352 350 349 351 355 357 358 357 357 358 360 2 5 6 7 11 13 13 12 12 11 9 7 6 8 9 10 12 13 13 13 13 14 14 15 14 13 12 12
224 220 215 214 216 219 221 221 218 214 210 210 210 210 211 215 221 228 234 239 240 242 248 253 258 264 272 277 280 282 285 290 294 296 299 305 310 313 317 324 330 338 343 344 345 347 347 346 346 350 354 356 356 355 355 357 359 2 5 6 8 12 13 13 13 13 12 10 9 9 10 10 12 14 14 14 14 16 17 17 17 16 15 14 13
224 223 219 212 213 220 221 221 218 213 211 211 211 213 215 219 225 231 237 240 240 241 246 251 257 264 271 276 278 279 282 287 291 292 294 300 307 310 315 322 328 335 340 340 342 344 344 344 345 348 351 353 354 353 353 355 358 2 5 6 10 12 12 12 14 14 13 12 11 12 13 14 16 16 15 15 15 16 17 18 18 18 17 15 14
224 227 225 214 213 222 222 220 217 214 213 213 213 215 218 222 228 233 238 240 239 240 243 248 255 263 270 274 276 277 281 286 289 289 291 297 304 308 311 317 324 332 337 337 338 341 342 342 343 345 348 350 351 350 351 354 357 3 6 7 11 12 12 13 14 14 13 12 13 15 15 16 18 17 16 17 18 18 18 17 18 19 18 16 14
223 228 229 219 218 225 225 222 219 216 216 216 216 218 221 224 229 233 237 238 237 239 242 247 254 262 268 270 272 275 279 284 286 286 289 296 302 305 308 313 319 330 335 334 335 338 340 340 341 343 345 346 347 348 350 353 358 4 6 8 11 12 13 14 14 14 13 13 15 17 15 16 17 17 17 19 22 23 23 21 20 20 19 18 16
224 227 228 226 227 230 227 224 221 219 218 218 217 218 221 225 230 233 235 235 236 239 242 247 254 260 265 267 269 272 276 281 284 284 288 294 299 301 303 307 315 327 333 331 333 335 337 337 338 340 342 342 343 345 348 352 358 3 6 9 11 12 14 15 15 15 13 14 18 17 15 16 17 16 18 22 25 26 25 23 23 21 20 19 19
223 225 227 229 233 232 228 225 223 222 220 218 217 218 222 226 229 231 232 233 236 239 243 248 254 259 262 264 267 270 274 279 281 283 286 290 294 295 297 302 311 324 329 329 330 332 334 335 334 336 338 339 340 341 344 351 359 4 7 8 10 12 14 15 16 15 14 17 20 17 16 19 19 18 20 22 24 25 25 24 23 21 19 19 20
223 225 226 229 233 231 228 226 224 223 221 219 218 220 223 227 228 230 231 232 236 240 243 248 253 258 261 263 266 269 273 277 279 281 283 287 289 289 292 297 305 317 322 324 328 331 332 331 330 331 334 336 337 337 341 349 358 5 8 8 9 11 13 16 16 15 15 18 21 18 17 20 20 19 21 23 24 24 25 24 23 22 21 20 21
225 227 228 230 233 231 227 226 225 224 221 220 220 222 225 226 227 228 230 232 235 238 242 247 252 256 259 261 264 267 271 275 278 279 280 282 284 284 286 292 299 309 314 319 326 328 329 327 325 327 330 332 333 333 338 348 357 5 8 7 8 10 13 16 17 15 16 19 20 18 18 21 21 20 23 25 25 25 25 24 25 25 24 23 23
225 228 230 231 232 230 228 226 225 224 222 221 222 223 225 227 228 229 230 233 235 236 239 245 250 253 256 258 261 264 269 275 277 278 278 278 278 278 281 286 292 299 307 315 322 325 326 324 321 322 325 329 330 330 336 347 356 4 7 6 6 9 14 17 17 16 16 18 20 18 19 22 23 23 25 24 25 26 26 26 26 26 25 25 26
226 228 230 232 233 231 228 226 226 226 224 223 224 225 227 230 232 233 234 234 234 235 239 245 249 252 253 255 258 262 267 273 274 274 274 273 273 273 276 279 283 291 300 310 318 322 322 320 317 318 320 324 326 327 334 345 353 1 5 4 4 7 14 18 18 18 18 19 21 20 20 24 24 24 25 25 25 26 27 27 28 27 27 28 28
228 230 230 230 232 232 230 227 227 228 227 226 226 228 231 234 237 239 238 237 236 237 241 246 248 250 251 253 255 258 263 267 270 270 270 269 267 268 269 271 274 282 293 304 313 318 318 317 314 313 316 319 321 324 333 343 350 356 360 2 2 6 14 18 19 19 20 21 23 22 23 27 27 27 27 27 29 29 29 30 30 29 30 31 30
229 232 232 233 233 233 231 228 228 230 230 229 229 229 232 235 237 239 239 237 237 238 242 244 245 246 248 249 252 255 259 263 266 266 265 264 262 262 264 264 265 272 284 297 307 312 314 313 311 309 312 315 317 320 330 341 346 350 354 359 1 5 13 18 19 21 23 24 25 24 26 29 30 30 30 29 31 32 31 31 31 31 33 33 31
232 233 235 234 232 231 231 230 230 231 230 228 227 229 231 233 235 235 234 236 237 238 240 242 243 244 246 249 250 254 258 261 263 263 261 259 258 257 258 258 258 264 276 290 300 307 311 310 307 307 308 310 313 316 325 336 341 341 346 355 1 6 13 18 20 22 25 28 28 27 29 33 34 33 32 31 32 31 30 30 32 33 34 34 33
239 236 234 232 228 226 229 231 230 229 227 225 225 229 232 233 233 231 231 233 236 238 239 241 243 244 246 248 251 253 258 260 261 260 256 254 253 252 252 252 253 260 271 283 294 302 307 307 304 304 305 306 308 311 317 327 331 332 339 350 359 7 14 19 21 24 28 31 31 30 31 34 35 34 33 32 31 30 29 29 31 32 32 33 33
243 237 233 230 228 226 229 232 231 228 226 224 227 232 233 233 233 234 232 230 231 237 240 240 242 244 246 249 251 254 257 258 258 256 252 249 247 246 246 247 249 256 266 277 288 297 303 303 302 301 301 302 304 305 307 313 317 321 331 345 356 5 13 18 21 26 32 34 34 32 32 33 34 33 32 31 30 30 30 29 29 29 30 30 30
247 241 233 226 223 223 228 234 235 231 226 224 228 234 237 238 238 234 229 225 226 234 240 240 241 244 246 249 251 253 255 255 254 252 248 244 242 240 241 242 246 253 261 271 283 293 299 300 298 296 295 296 297 296 296 299 304 310 322 337 352 2 11 18 22 29 35 37 36 33 30 30 29 28 28 27 26 27 28 28 27 26 26 27 27
245 239 229 218 215 219 226 234 239 235 226 223 229 236 242 249 248 236 226 222 223 230 237 240 241 243 245 247 250 251 252 252 251 248 244 239 236 235 236 238 243 250 258 267 278 288 294 296 294 291 289 288 287 286 285 286 291 297 306 322 342 357 9 17 22 30 36 38 37 32 27 24 22 21 22 22 22 23 23 25 25 24 23 23 24
239 235 226 215 212 218 226 232 237 233 221 220 234 243 249 256 261 253 237 228 225 228 234 238 241 242 244 245 247 248 249 248 247 244 239 233 231 231 233 236 242 249 255 264 275 283 288 291 290 286 284 282 279 275 272 273 276 279 283 294 316 340 359 11 19 30 36 37 35 29 23 19 14 13 14 16 17 19 19 20 21 21 20 20 21
232 231 225 212 206 214 226 232 236 236 229 231 244 253 258 261 265 266 258 245 236 232 233 237 240 241 242 243 244 245 245 245 244 240 233 228 227 228 231 234 239 246 253 261 271 278 284 288 287 284 281 279 275 268 263 263 263 260 258 259 261 270 298 354 16 29 34 34 31 26 19 13 9 7 8 10 12 14 16 17 17 17 17 17 17
225 224 220 206 201 210 224 230 235 243 249 251 254 260 265 268 269 269 265 259 248 237 233 236 238 239 240 241 240 240 242 242 240 236 229 224 224 226 230 234 238 244 251 259 267 274 281 285 284 281 278 275 271 264 258 257 256 251 245 240 229 219 216 221 303 20 32 29 26 22 14 7 4 2 2 5 7 10 12 13 12 13 13 14 13
217 212 209 201 201 212 226 234 239 244 251 256 261 265 267 269 272 272 268 263 250 235 229 233 238 238 238 238 236 237 240 240 238 232 225 220 221 224 227 231 236 241 246 255 265 272 279 282 281 277 275 272 267 260 254 252 251 247 240 232 220 211 206 211 231 292 4 13 13 13 6 0 358 357 357 0 3 6 8 8 8 8 8 8 9
202 200 201 199 204 216 228 238 244 246 252 258 261 265 268 270 273 273 269 264 249 233 225 226 235 238 236 235 235 236 238 238 235 229 221 217 220 224 226 230 234 238 243 251 261 270 276 279 277 274 272 269 264 257 250 247 245 242 236 229 221 215 212 217 232 258 293 325 344 353 354 353 352 350 351 355 358 0 2 2 2 3 3 3 4
201 204 202 200 205 218 228 235 242 247 253 258 261 265 268 268 267 265 260 253 244 233 224 222 229 232 229 230 232 233 234 235 232 225 219 215 217 222 226 228 231 235 240 247 257 267 275 277 276 272 269 265 260 253 248 243 240 238 234 228 223 220 219 225 239 255 273 292 311 326 336 343 344 343 346 350 352 354 356 356 357 357 357 358 359
198 206 205 200 204 214 222 231 243 251 257 261 264 266 265 264 265 262 256 249 241 233 225 221 224 226 224 225 228 228 228 227 223 217 215 216 218 222 224 226 230 234 238 244 253 263 270 273 274 270 266 262 256 250 246 241 237 237 233 228 226 226 226 231 242 253 265 278 291 305 318 329 334 337 340 343 345 348 349 350 351 351 352 353 353
198 202 204 203 205 212 224 238 248 256 263 266 267 266 263 263 263 259 254 250 242 230 223 221 223 223 222 223 224 224 223 222 220 216 214 217 222 224 224 225 228 233 237 243 252 260 266 270 272 270 265 260 254 249 245 240 236 235 234 231 229 231 233 238 247 256 264 274 284 294 305 315 323 329 333 336 339 341 342 343 344 345 346 348 348
213 208 207 211 215 223 239 248 251 257 265 268 266 263 260 258 256 249 244 243 235 224 219 221 222 222 223 226 227 226 226 228 227 224 220 220 223 225 224 223 226 231 236 244 252 259 264 268 269 268 265 259 253 248 244 240 236 234 234 233 232 233 237 243 250 258 265 272 280 288 297 306 313 320 326 329 332 334 335 337 338 338 340 342 342
220 219 217 220 223 228 238 247 252 257 261 261 259 257 255 254 252 246 242 239 233 225 222 223 223 222 223 226 228 230 232 233 231 227 225 226 226 225 224 226 228 233 238 245 252 256 260 263 265 265 263 259 254 249 245 241 238 236 236 236 237 238 241 246 253 260 265 270 277 285 293 300 306 312 318 322 325 327 329 330 332 333 334 335 336
219 221 224 227 232 238 243 247 250 250 252 254 258 262 264 261 255 248 245 244 242 236 230 226 224 223 223 224 227 231 233 234 230 227 226 227 227 225 225 228 231 234 239 246 251 254 257 261 262 262 260 258 254 250 246 243 239 238 238 239 241 243 246 251 256 262 266 271 277 282 288 295 300 305 310 314 317 320 322 323 325 326 327 329 330
228 232 236 240 244 249 252 251 247 243 247 256 263 268 271 269 260 251 247 246 244 240 234 229 225 223 223 225 228 232 233 234 233 231 230 229 227 224 224 228 231 234 238 244 250 253 255 259 261 260 259 258 254 250 247 245 243 241 241 241 243 246 250 253 258 262 267 271 276 280 285 291 295 299 304 308 310 313 316 317 319 320 321 322 324
241 243 248 251 253 255 257 255 251 248 253 264 273 276 275 271 264 253 247 246 245 240 234 229 225 221 220 222 227 232 233 234 234 234 234 233 230 227 228 232 235 236 238 242 248 252 254 257 259 259 258 257 254 250 247 246 245 244 244 245 246 248 252 255 259 263 267 270 274 279 282 286 291 295 298 302 304 307 309 312 313 315 316 317 318
243 244 249 253 255 257 257 256 257 259 265 274 280 282 280 275 263 249 243 247 250 245 236 229 224 222 221 221 224 228 231 232 233 234 235 234 231 231 235 238 237 238 240 243 248 252 254 255 257 257 257 256 253 250 246 245 245 246 246 247 249 251 254 257 261 264 268 270 273 276 279 283 287 291 294 297 300 302 304 307 309 310 311 312 313
250 253 254 249 246 249 253 256 260 266 269 270 272 275 276 273 264 251 246 249 252 248 239 230 224 222 223 224 224 226 228 228 230 232 232 232 232 233 235 237 238 241 243 245 249 253 253 253 254 256 256 255 253 250 247 244 244 246 247 248 250 252 255 259 262 265 268 271 273 276 279 282 285 288 291 293 296 298 300 302 304 305 306 308 309
257 262 262 255 248 247 251 255 259 264 266 266 263 262 263 261 256 252 252 253 254 251 243 233 225 223 224 226 226 227 227 226 227 230 230 230 232 233 234 237 242 246 246 247 250 251 250 251 253 254 255 255 253 251 249 245 244 245 247 248 250 253 256 259 262 265 268 271 274 277 279 282 284 286 288 290 293 295 297 299 301 302 303 304 305
253 257 260 262 259 251 248 250 254 259 266 270 267 262 260 257 252 250 250 253 256 256 251 240 229 224 225 227 229 230 230 228 226 226 228 229 230 230 232 235 240 242 243 245 247 247 246 247 249 250 252 253 252 251 250 247 246 246 247 249 251 254 256 259 262 265 268 271 274 277 280 282 284 285 287 289 291 293 295 297 298 299 300 302 303
248 250 250 254 259 258 252 250 252 257 264 268 265 262 261 259 254 249 246 246 250 254 254 246 233 225 226 230 231 232 233 230 226 223 223 224 225 226 228 232 236 238 240 242 242 241 241 243 244 247 249 250 251 251 251 250 250 250 251 252 253 255 258 260 263 265 268 271 274 277 279 281 283 285 286 288 290 291 293 295 296 297 298 300 301
247 250 248 249 254 257 255 253 253 256 258 262 262 260 256 254 252 249 246 245 248 252 254 247 235 226 226 230 231 233 233 231 227 223 222 221 222 224 228 232 235 240 244 246 244 242 240 239 241 243 246 248 250 251 252 252 253 253 254 256 257 258 261 263 265 268 270 272 274 277 279 281 283 284 286 287 288 290 291 293 294 295 296 297 298
251 253 253 252 251 250 250 253 257 256 256 259 263 263 257 251 250 249 247 246 249 254 255 249 238 230 228 230 233 234 233 230 228 226 225 224 225 228 230 233 237 242 247 248 247 245 243 241 241 243 244 246 249 250 251 253 254 255 257 258 260 261 263 265 267 270 272 274 276 278 279 281 283 284 285 287 288 289 290 291 292 293 293 294 295
254 254 254 254 253 251 253 259 261 256 252 253 255 258 258 252 246 243 243 246 252 256 257 251 243 236 233 232 233 233 232 231 229 230 230 230 230 232 233 235 238 242 246 247 247 246 245 244 243 244 244 246 248 250 251 253 254 256 258 259 260 262 264 267 269 271 273 274 276 278 279 281 283 284 286 287 287 288 289 290 291 291 292 292 293
255 257 257 256 254 254 255 256 253 249 250 253 254 254 255 250 242 240 245 251 255 258 259 256 247 240 236 235 235 235 234 233 232 231 232 233 234 234 234 236 238 240 243 247 249 248 247 246 246 246 246 247 248 250 251 253 254 256 258 260 261 264 266 268 270 272 273 275 277 279 280 282 283 284 285 286 287 288 288 289 290 290 290 290 291
260 259 256 254 253 250 246 244 244 246 249 253 255 254 254 252 249 250 254 255 255 257 260 258 249 241 237 237 236 236 235 234 232 232 232 234 235 236 237 237 238 240 242 246 250 251 249 248 248 249 249 250 251 252 253 254 256 258 261 263 265 267 268 270 271 273 275 277 279 280 280 281 282 283 284 285 286 287 287 288 288 289 289 289 290
260 254 249 248 247 242 236 236 239 242 243 243 246 253 260 264 263 262 261 260 259 260 260 258 252 246 242 239 238 237 236 235 234 234 235 236 238 239 239 239 239 240 243 247 252 254 253 251 250 251 252 253 254 255 256 258 261 264 266 269 270 270 270 271 272 273 275 277 279 280 280 281 282 283 283 284 285 286 287 288 288 289 290 291 292
252 242 241 245 244 239 237 238 238 239 244 248 250 254 259 261 259 258 257 257 259 260 260 259 257 253 247 242 239 237 236 237 237 238 240 241 240 240 239 238 238 239 242 247 252 255 255 254 253 253 253 254 255 257 260 263 266 268 271 272 273 273 273 273 274 276 277 278 279 280 281 281 281 282 283 284 285 285 287 288 289 291 292 293 294
251 239 239 245 243 236 235 238 241 244 251 256 258 260 261 260 257 257 258 260 263 265 264 262 259 255 249 244 240 238 237 238 239 242 245 246 246 244 241 237 235 237 242 248 251 253 254 254 254 253 254 256 259 263 266 269 272 273 275 276 277 277 277 278 279 279 280 280 280 280 280 280 281 282 283 283 284 286 287 288 289 291 292 293 293
257 248 243 245 244 239 238 244 250 252 252 253 255 259 261 261 261 265 268 270 272 272 271 268 263 257 251 247 243 240 239 239 241 245 248 250 251 249 243 237 234 237 243 248 251 251 253 254 255 257 259 263 267 270 273 275 277 278 279 280 280 281 282 283 283 283 283 283 282 281 281 281 282 283 284 285 286 287 288 290 291 292 293 293 294
262 261 249 242 242 246 249 251 251 249 247 249 254 258 260 262 266 271 273 274 275 275 274 270 263 257 252 248 244 241 240 240 242 246 249 251 251 249 244 239 238 239 243 247 250 253 255 258 261 264 267 270 272 274 276 277 279 281 282 284 285 285 286 286 285 285 284 283 283 283 283 283 284 284 285 285 286 287 288 290 291 292 293 293 295
259 259 249 239 239 244 248 250 250 248 247 250 254 258 262 267 271 272 273 273 272 271 268 265 260 255 253 250 247 246 246 247 249 251 254 255 253 250 245 242 242 244 247 251 255 258 261 264 267 269 271 273 275 276 278 280 282 284 286 287 288 289 289 288 287 285 284 283 283 284 284 284 284 284 284 285 285 286 287 288 288 289 290 290 291
Height
3128 3130 3131 3131 3132 3134 3136 3138 3140 3142 3144 3146 3148 3150 3152 3154 3156 3157 3158 3159 3160 3161 3161 3162 3162 3162 3162 3162 3162 3162 3161 3161 3161 3161 3160 3159 3158 3157 3156 3155 3154 3153 3151 3150 3149 3148 3147 3146 3145 3144 3143 3143 3141 3140 3138 3136 3135 3133 3131 3129 3127 3125 3122 3119 3117 3115 3112 3111 3109 3107 3105 3102 3100 3097 3095 3092 3090 3087 3085 3082 3080 3077 3074 3071 3068
3126 3128 3129 3130 3131 3133 3134 3136 3138 3140 3142 3144 3147 3149 3151 3153 3154 3156 3157 3158 3159 3160 3160 3160 3161 3161 3161 3161 3161 3160 3160 3160 3160 3160 3159 3158 3157 3157 3155 3154 3153 3152 3151 3150 3149 3148 3147 3145 3144 3144 3143 3142 3141 3140 3138 3136 3135 3133 3131 3129 3127 3125 3122 3120 3117 3115 3113 3111 3109 3107 3104 3103 3100 3098 3095 3092 3089 3087 3084 3082 3079 3076 3073 3070 3067
3124 3126 3127 3128 3130 3131 3132 3134 3136 3138 3141 3143 3145 3148 3149 3151 3153 3154 3156 3157 3158 3158 3159 3159 3159 3160 3159 3159 3159 3159 3158 3158 3159 3158 3158 3157 3157 3156 3155 3154 3152 3151 3150 3149 3148 3147 3146 3145 3144 3144 3143 3142 3141 3139 3137 3136 3135 3133 3131 3129 3127 3125 3122 3120 3118 3116 3114 3112 3110 3107 3105 3102 3099 3097 3094 3091 3089 3086 3084 3081 3079 3076 3073 3070 3067
3122 3124 3126 3127 3128 3129 3130 3133 3135 3137 3139 3142 3144 3146 3148 3149 3151 3153 3154 3156 3156 3157 3157 3158 3158 3158 3158 3158 3158 3157 3157 3157 3158 3157 3157 3156 3156 3155 3154 3153 3152 3150 3149 3148 3147 3146 3145 3145 3144 3143 3143 3141 3140 3138 3137 3136 3134 3133 3131 3129 3127 3124 3122 3120 3118 3116 3114 3112 3110 3108 3105 3102 3099 3096 3093 3091 3089 3086 3084 3081 3079 3076 3073 3070 3067
3121 3123 3124 3125 3126 3128 3129 3131 3134 3135 3138 3140 3142 3144 3146 3148 3150 3151 3153 3154 3155 3155 3156 3156 3156 3156 3156 3156 3156 3156 3156 3156 3156 3156 3156 3155 3155 3154 3153 3152 3151 3149 3148 3148 3147 3146 3145 3144 3143 3143 3142 3141 3139 3138 3136 3135 3134 3132 3130 3128 3126 3124 3122 3120 3118 3116 3114 3112 3110 3107 3105 3102 3099 3097 3094 3092 3090 3087 3085 3082 3079 3076 3073 3070 3068
3119 3121 3122 3124 3126 3127 3128 3130 3132 3134 3136 3138 3141 3143 3145 3147 3148 3149 3151 3152 3153 3153 3154 3154 3154 3155 3155 3155 3154 3155 3155 3155 3155 3155 3154 3154 3153 3153 3152 3151 3150 3149 3148 3147 3146 3145 3144 3143 3143 3142 3141 3140 3139 3137 3136 3134 3133 3131 3130 3128 3126 3123 3122 3120 3119 3117 3114 3112 3110 3108 3105 3102 3100 3097 3095 3093 3091 3088 3086 3083 3080 3077 3074 3071 3068
3117 3118 3120 3123 3125 3126 3127 3129 3130 3133 3135 3137 3139 3141 3143 3145 3146 3147 3149 3150 3151 3151 3152 3152 3153 3153 3153 3153 3153 3153 3153 3154 3154 3153 3153 3153 3152 3151 3151 3150 3149 3148 3147 3146 3146 3145 3144 3143 3142 3141 3140 3139 3138 3137 3135 3134 3133 3131 3129 3127 3125 3123 3122 3120 3119 3117 3115 3113 3111 3109 3106 3103 3101 3098 3096 3094 3091 3088 3086 3083 3081 3078 3075 3072 3069
3115 3116 3118 3122 3124 3125 3126 3127 3129 3131 3133 3135 3137 3139 3141 3143 3144 3145 3147 3148 3148 3149 3150 3150 3151 3151 3151 3151 3151 3151 3152 3152 3152 3152 3151 3151 3151 3150 3149 3149 3148 3147 3146 3146 3145 3144 3143 3142 3141 3140 3139 3138 3137 3136 3135 3134 3132 3131 3129 3127 3125 3124 3122 3121 3119 3117 3115 3113 3111 3109 3107 3104 3102 3100 3098 3095 3092 3089 3085 3083 3080 3078 3075 3072 3070
3114 3115 3117 3120 3123 3123 3124 3126 3127 3129 3131 3133 3135 3137 3139 3141 3142 3143 3144 3145 3146 3147 3148 3149 3149 3149 3149 3149 3149 3150 3150 3150 3150 3150 3150 3149 3149 3149 3148 3148 3147 3146 3146 3145 3144 3143 3143 3141 3140 3139 3138 3137 3137 3136 3135 3133 3132 3131 3129 3127 3126 3124 3123 3121 3119 3117 3115 3113 3111 3109 3107 3105 3102 3101 3098 3095 3092 3089 3087 3084 3081 3078 3076 3074 3071
3113 3114 3115 3118 3120 3121 3122 3123 3125 3127 3129 3131 3133 3135 3137 3138 3140 3141 3142 3143 3144 3145 3146 3146 3147 3147 3147 3147 3147 3148 3148 3148 3149 3149 3148 3148 3148 3147 3147 3147 3146 3145 3145 3144 3144 3143 3142 3141 3139 3139 3138 3137 3136 3135 3134 3133 3131 3130 3129 3127 3125 3124 3123 3121 3119 3117 3115 3114 3111 3109 3107 3104 3102 3100 3098 3095 3093 3091 3088 3086 3083 3080 3078 3076 3073
3111 3112 3114 3115 3117 3118 3120 3121 3123 3125 3127 3129 3131 3133 3134 3136 3137 3139 3140 3141 3142 3143 3143 3144 3145 3145 3145 3145 3146 3146 3146 3146 3147 3147 3147 3146 3146 3146 3146 3146 3145 3144 3144 3144 3143 3142 3141 3140 3139 3138 3137 3136 3135 3134 3133 3132 3131 3130 3128 3126 3125 3124 3123 3121 3119 3117 3116 3113 3111 3109 3107 3104 3102 3100 3098 3096 3093 3091 3089 3086 3084 3082 3079 3076 3073
3109 3111 3112 3113 3115 3116 3118 3119 3121 3123 3125 3127 3129 3130 3132 3133 3135 3136 3137 3139 3139 3140 3141 3142 3142 3143 3143 3143 3144 3144 3144 3145 3145 3145 3145 3145 3145 3145 3145 3144 3144 3143 3143 3143 3142 3141 3140 3139 3138 3137 3136 3135 3134 3133 3132 3131 3130 3129 3127 3126 3125 3124 3122 3121 3119 3117 3115 3113 3111 3110 3107 3105 3103 3101 3099 3096 3094 3091 3089 3087 3085 3082 3079 3076 3073
3107 3109 3110 3111 3112 3114 3115 3117 3119 3121 3123 3125 3127 3128 3130 3131 3132 3134 3135 3136 3137 3138 3138 3139 3140 3140 3141 3141 3142 3142 3143 3143 3143 3143 3143 3143 3143 3143 3143 3143 3142 3142 3142 3142 3141 3140 3139 3138 3137 3136 3135 3135 3134 3133 3132 3131 3129 3128 3127 3125 3124 3123 3122 3120 3119 3117 3115 3113 3111 3110 3108 3105 3103 3101 3099 3097 3095 3093 3090 3088 3085 3083 3080 3078 3075
3105 3106 3107 3109 3110 3112 3113 3115 3117 3119 3121 3123 3124 3126 3127 3129 3130 3131 3132 3133 3134 3135 3136 3136 3137 3137 3138 3139 3140 3140 3141 3141 3141 3141 3142 3142 3142 3142 3142 3141 3141 3141 3141 3141 3140 3139 3139 3138 3136 3135 3135 3134 3133 3132 3131 3130 3128 3128 3126 3125 3124 3123 3122 3120 3119 3117 3115 3113 3111 3110 3108 3105 3103 3101 3099 3097 3095 3093 3091 3089 3086 3084 3082 3080 3077
3102 3104 3105 3106 3108 3109 3111 3113 3115 3117 3119 3120 3121 3123 3125 3127 3128 3129 3130 3131 3131 3132 3133 3134 3134 3135 3136 3137 3138 3138 3138 3139 3139 3139 3140 3140 3140 3140 3140 3140 3140 3139 3139 3139 3139 3138 3138 3137 3136 3135 3134 3133 3133 3132 3130 3129 3128 3127 3126 3125 3124 3122 3121 3120 3118 3117 3115 3113 3111 3110 3108 3105 3103 3102 3100 3098 3096 3093 3092 3090 3088 3086 3084 3081 3079
3100 3101 3102 3103 3105 3107 3109 3111 3113 3114 3116 3117 3119 3122 3124 3125 3126 3127 3128 3129 3130 3130 3131 3131 3132 3133 3134 3135 3135 3136 3136 3136 3137 3137 3138 3138 3138 3138 3138 3138 3138 3138 3138 3138 3137 3137 3137 3136 3135 3134 3133 3133 3132 3131 3130 3128 3127 3126 3125 3124 3123 3122 3121 3120 3118 3117 3115 3113 3111 3110 3109 3106 3104 3103 3101 3099 3097 3095 3094 3092 3091 3088 3086 3084 3081
3097 3099 3099 3101 3102 3105 3107 3109 3110 3112 3113 3116 3118 3119 3121 3122 3123 3124 3125 3126 3127 3128 3128 3129 3130 3131 3131 3132 3133 3133 3134 3134 3134 3135 3136 3136 3136 3136 3136 3136 3136 3136 3136 3136 3136 3136 3136 3135 3134 3133 3132 3132 3131 3130 3129 3127 3126 3125 3125 3124 3123 3121 3120 3119 3118 3116 3115 3113 3112 3111 3109 3107 3105 3104 3102 3101 3099 3098 3097 3095 3093 3090 3087 3085 3082
3094 3095 3096 3098 3100 3103 3105 3107 3108 3109 3111 3113 3115 3116 3117 3118 3119 3120 3122 3123 3124 3125 3125 3126 3127 3128 3129 3129 3130 3131 3131 3132 3132 3133 3134 3134 3134 3135 3135 3135 3135 3135 3134 3135 3135 3135 3135 3134 3133 3132 3131 3131 3130 3129 3128 3127 3126 3125 3124 3124 3122 3121 3120 3119 3118 3116 3115 3113 3112 3111 3109 3108 3106 3105 3104 3102 3101 3099 3098 3096 3093 3091 3088 3086 3083
3090 3091 3093 3095 3099 3101 3103 3104 3105 3106 3108 3111 3112 3113 3114 3115 3116 3117 3118 3120 3121 3122 3123 3124 3124 3125 3126 3127 3127 3128 3129 3130 3130 3131 3131 3132 3132 3132 3133 3133 3133 3133 3133 3133 3133 3133 3133 3133 3132 3131 3130 3129 3129 3128 3127 3126 3125 3124 3124 3123 3122 3121 3120 3119 3118 3116 3115 3113 3112 3111 3110 3108 3107 3106 3104 3103 3101 3100 3098 3095 3093 3091 3089 3086 3084
3088 3089 3091 3094 3097 3099 3100 3100 3102 3103 3106 3108 3110 3111 3111 3112 3114 3115 3116 3117 3118 3119 3120 3121 3122 3122 3123 3124 3125 3126 3126 3127 3128 3129 3129 3130 3130 3130 3130 3131 3131 3131 3131 3131 3132 3132 3132 3131 3131 3130 3129 3128 3127 3127 3126 3125 3125 3124 3123 3122 3121 3120 3119 3118 3117 3116 3114 3113 3112 3111 3110 3109 3108 3106 3105 3104 3102 3100 3098 3096 3094 3091 3089 3087 3085
3086 3088 3090 3092 3094 3096 3097 3098 3099 3101 3103 3105 3106 3107 3108 3110 3111 3112 3112 3114 3116 3117 3118 3118 3119 3119 3120 3121 3122 3123 3124 3125 3126 3126 3127 3127 3128 3128 3128 3129 3129 3129 3129 3130 3130 3130 3130 3129 3129 3129 3128 3127 3126 3125 3125 3124 3124 3123 3122 3121 3120 3120 3119 3118 3117 3116 3114 3113 3112 3111 3110 3109 3108 3107 3105 3104 3102 3100 3098 3096 3094 3092 3090 3088 3085
3083 3085 3087 3089 3090 3092 3094 3095 3096 3097 3100 3102 3104 3105 3106 3107 3108 3109 3110 3111 3113 3114 3114 3115 3116 3116 3117 3118 3119 3120 3121 3122 3123 3124 3124 3125 3125 3126 3126 3126 3127 3127 3127 3128 3128 3128 3128 3128 3127 3127 3127 3126 3125 3124 3124 3123 3123 3122 3121 3120 3120 3119 3118 3117 3117 3115 3114 3113 3112 3111 3111 3109 3108 3107 3105 3104 3102 3100 3098 3097 3095 3093 3091 3088 3086
3080 3081 3083 3085 3087 3090 3091 3092 3093 3095 3097 3100 3101 3102 3103 3104 3105 3106 3107 3108 3109 3110 3110 3111 3112 3113 3114 3115 3116 3117 3119 3120 3121 3121 3122 3123 3123 3124 3124 3124 3124 3125 3125 3126 3126 3126 3126 3126 3125 3125 3125 3125 3124 3124 3123 3123 3122 3121 3120 3120 3119 3118 3118 3117 3116 3115 3114 3113 3112 3111 3110 3110 3108 3107 3106 3104 3102 3100 3098 3096 3095 3093 3091 3089 3087
3078 3079 3080 3082 3084 3087 3089 3089 3090 3092 3095 3097 3098 3099 3101 3101 3102 3103 3104 3105 3106 3106 3107 3108 3109 3110 3111 3112 3113 3115 3116 3117 3118 3119 3119 3120 3121 3121 3122 3122 3122 3123 3123 3124 3124 3124 3124 3123 3123 3123 3123 3123 3123 3122 3122 3121 3121 3120 3120 3119 3118 3118 3117 3117 3116 3115 3114 3113 3112 3111 3110 3110 3108 3107 3106 3104 3102 3100 3098 3096 3095 3093 3091 3089 3087
3077 3078 3079 3080 3082 3085 3087 3088 3089 3090 3092 3094 3095 3096 3097 3097 3098 3099 3100 3101 3102 3102 3103 3104 3106 3107 3108 3109 3110 3111 3113 3114 3115 3116 3117 3118 3119 3119 3120 3120 3120 3121 3121 3121 3122 3122 3122 3122 3121 3121 3121 3121 3121 3121 3120 3120 3120 3119 3119 3118 3117 3117 3116 3116 3115 3115 3113 3112 3111 3111 3110 3109 3108 3107 3106 3104 3102 3100 3098 3096 3094 3093 3091 3089 3088
3076 3077 3078 3079 3082 3083 3085 3086 3088 3088 3089 3090 3091 3092 3093 3093 3094 3094 3095 3095 3096 3097 3099 3101 3103 3104 3105 3106 3108 3108 3110 3111 3113 3114 3114 3115 3116 3117 3117 3118 3118 3119 3119 3119 3119 3119 3119 3119 3119 3119 3119 3119 3119 3119 3118 3118 3118 3118 3117 3117 3116 3116 3116 3115 3115 3114 3113 3112 3111 3110 3110 3109 3108 3107 3106 3104 3102 3100 3098 3096 3094 3093 3091 3089 3088
3075 3076 3076 3078 3080 3081 3082 3084 3084 3085 3086 3086 3087 3088 3089 3089 3089 3089 3090 3091 3091 3092 3094 3097 3099 3101 3102 3104 3105 3106 3107 3108 3110 3111 3112 3113 3114 3114 3115 3115 3116 3116 3117 3117 3117 3117 3117 3117 3118 3117 3117 3117 3117 3117 3117 3116 3116 3116 3116 3115 3115 3115 3114 3114 3114 3113 3112 3111 3110 3110 3109 3108 3107 3106 3105 3104 3102 3100 3098 3097 3095 3093 3091 3089 3087
3073 3074 3075 3076 3077 3079 3080 3081 3081 3082 3082 3083 3084 3084 3084 3085 3085 3086 3086 3087 3088 3089 3091 3093 3096 3097 3099 3100 3102 3103 3104 3106 3108 3109 3109 3110 3111 3111 3112 3113 3114 3114 3115 3115 3115 3115 3115 3115 3115 3115 3115 3115 3115 3115 3115 3115 3115 3115 3114 3114 3114 3114 3113 3113 3113 3112 3112 3111 3110 3109 3108 3107 3106 3106 3104 3103 3102 3100 3099 3097 3095 3093 3091 3089 3088
3070 3071 3072 3074 3075 3077 3078 3078 3079 3079 3079 3079 3080 3081 3081 3082 3082 3082 3083 3083 3084 3085 3088 3090 3092 3094 3095 3096 3098 3100 3102 3103 3104 3105 3106 3107 3107 3108 3109 3110 3111 3112 3112 3112 3112 3112 3112 3113 3113 3113 3113 3113 3113 3113 3113 3113 3113 3113 3113 3113 3112 3112 3112 3112 3112 3111 3111 3110 3109 3108 3107 3106 3105 3104 3103 3102 3101 3099 3098 3096 3095 3093 3091 3090 3088
3067 3068 3070 3071 3073 3074 3075 3076 3076 3076 3076 3076 3077 3077 3078 3078 3079 3079 3079 3079 3080 3082 3085 3087 3088 3090 3091 3093 3095 3097 3098 3099 3099 3101 3102 3103 3104 3105 3106 3107 3108 3109 3109 3110 3110 3110 3110 3110 3111 3111 3111 3111 3111 3111 3111 3111 3111 3111 3111 3111 3111 3111 3110 3110 3110 3110 3110 3109 3108 3107 3106 3105 3104 3103 3102 3101 3100 3098 3097 3096 3094 3093 3091 3089 3088
3065 3066 3068 3069 3071 3072 3072 3073 3072 3072 3072 3073 3074 3074 3075 3075 3075 3075 3076 3076 3077 3079 3082 3084 3085 3086 3088 3090 3092 3093 3094 3095 3096 3098 3099 3100 3101 3102 3104 3105 3106 3106 3107 3107 3108 3108 3108 3108 3108 3108 3109 3109 3109 3109 3109 3109 3109 3109 3109 3109 3109 3109 3109 3109 3109 3109 3108 3108 3107 3106 3105 3104 3103 3102 3100 3099 3098 3097 3096 3094 3093 3092 3090 3089 3087
3062 3064 3065 3066 3068 3068 3069 3069 3070 3070 3070 3070 3071 3072 3072 3073 3073 3073 3073 3074 3075 3077 3079 3081 3082 3084 3085 3087 3089 3090 3091 3092 3094 3095 3096 3097 3098 3100 3101 3102 3103 3104 3104 3105 3105 3105 3106 3106 3106 3106 3106 3106 3107 3107 3107 3107 3107 3107 3107 3107 3107 3107 3107 3107 3107 3107 3106 3106 3105 3104 3103 3102 3101 3100 3099 3098 3097 3095 3094 3093 3092 3090 3089 3088 3086
3060 3061 3062 3063 3064 3065 3066 3067 3067 3068 3068 3068 3069 3070 3070 3071 3071 3071 3071 3072 3073 3075 3077 3078 3080 3081 3083 3085 3086 3087 3088 3090 3091 3092 3093 3094 3096 3097 3099 3100 3100 3101 3102 3102 3103 3103 3103 3103 3103 3104 3104 3104 3104 3104 3104 3104 3104 3104 3104 3105 3105 3105 3105 3105 3105 3104 3104 3104 3103 3102 3102 3101 3100 3098 3097 3096 3095 3094 3092 3091 3090 3089 3087 3086 3085
3058 3059 3060 3061 3062 3063 3064 3064 3065 3066 3066 3066 3067 3068 3068 3068 3068 3069 3069 3070 3072 3073 3074 3076 3077 3079 3080 3082 3084 3085 3086 3087 3088 3089 3090 3092 3093 3094 3095 3096 3097 3098 3099 3100 3100 3100 3100 3101 3101 3101 3101 3101 3101 3102 3102 3102 3102 3102 3102 3102 3102 3102 3102 3102 3102 3102 3102 3101 3101 3100 3099 3099 3098 3097 3096 3094 3093 3092 3091 3089 3088 3087 3085 3084 3083
3056 3057 3058 3059 3060 3061 3062 3062 3063 3063 3064 3064 3065 3066 3066 3066 3067 3067 3068 3068 3069 3070 3072 3073 3074 3076 3077 3079 3080 3081 3083 3084 3086 3087 3088 3089 3090 3091 3093 3093 3094 3095 3096 3097 3097 3097 3098 3098 3098 3099 3099 3099 3099 3099 3099 3099 3099 3099 3099 3099 3099 3099 3099 3099 3099 3099 3099 3099 3098 3098 3097 3096 3095 3094 3093 3092 3091 3090 3088 3087 3086 3085 3083 3082 3081
3055 3055 3056 3057 3058 3059 3060 3060 3061 3061 3062 3062 3063 3063 3064 3064 3065 3066 3066 3066 3067 3068 3070 3071 3072 3073 3074 3075 3077 3078 3080 3081 3083 3084 3085 3086 3087 3089 3090 3091 3092 3093 3093 3093 3094 3094 3095 3095 3095 3095 3095 3095 3095 3095 3095 3096 3096 3096 3096 3096 3096 3096 3096 3096 3096 3096 3096 3096 3095 3095 3094 3093 3093 3092 3091 3090 3089 3087 3086 3085 3084 3082 3081 3080 3078
3053 3054 3055 3055 3056 3057 3057 3058 3059 3059 3060 3060 3061 3061 3062 3062 3063 3064 3064 3065 3065 3066 3067 3068 3069 3070 3072 3073 3074 3075 3077 3078 3079 3080 3082 3083 3085 3086 3088 3089 3089 3090 3090 3090 3091 3091 3091 3092 3092 3092 3092 3092 3092 3092 3092 3092 3093 3093 3093 3093 3093 3093 3093 3093 3093 3093 3093 3093 3092 3092 3091 3090 3090 3089 3088 3087 3086 3085 3083 3082 3081 3080 3078 3077 3076
3051 3052 3052 3053 3054 3055 3055 3056 3057 3057 3058 3058 3059 3060 3060 3060 3061 3061 3062 3062 3062 3063 3064 3065 3066 3068 3069 3070 3071 3072 3073 3074 3075 3077 3079 3081 3082 3084 3085 3085 3086 3086 3087 3087 3087 3087 3088 3088 3088 3089 3089 3089 3089 3089 3089 3089 3089 3089 3089 3090 3090 3090 3090 3090 3090 3090 3090 3089 3089 3088 3088 3087 3086 3086 3085 3084 3083 3082 3080 3079 3078 3077 3075 3074 3073
3049 3049 3050 3051 3052 3053 3053 3054 3054 3055 3055 3056 3056 3057 3058 3058 3059 3059 3059 3059 3059 3060 3061 3063 3063 3064 3065 3067 3068 3069 3070 3071 3072 3074 3076 3078 3079 3080 3081 3081 3082 3082 3082 3082 3083 3083 3084 3084 3084 3085 3085 3085 3085 3085 3085 3085 3086 3086 3086 3086 3086 3086 3086 3086 3086 3086 3086 3086 3085 3085 3084 3084 3083 3082 3081 3081 3079 3078 3077 3076 3075 3073 3072 3071 3070
3046 3047 3048 3048 3049 3050 3051 3051 3052 3052 3053 3053 3053 3054 3054 3055 3056 3057 3057 3057 3057 3057 3058 3060 3060 3061 3062 3063 3064 3066 3067 3068 3070 3071 3072 3073 3074 3075 3076 3076 3077 3077 3078 3078 3078 3079 3079 3080 3080 3081 3081 3081 3082 3082 3082 3082 3082 3082 3082 3082 3082 3082 3082 3082 3082 3082 3082 3082 3082 3081 3080 3080 3079 3078 3078 3077 3075 3074 3073 3072 3071 3070 3068 3067 3066
3045 3045 3046 3046 3047 3047 3048 3049 3049 3050 3051 3051 3051 3051 3052 3053 3053 3054 3054 3054 3054 3054 3055 3056 3057 3057 3057 3059 3061 3063 3064 3065 3065 3066 3067 3068 3069 3070 3071 3072 3073 3073 3074 3074 3075 3075 3075 3075 3076 3076 3077 3078 3078 3078 3078 3078 3079 3079 3079 3079 3079 3079 3079 3078 3078 3078 3078 3078 3077 3077 3076 3075 3075 3074 3073 3072 3071 3070 3069 3068 3067 3066 3065 3063 3062
3042 3043 3044 3044 3044 3045 3045 3046 3047 3048 3048 3048 3049 3049 3050 3050 3051 3051 3051 3051 3051 3052 3052 3053 3053 3053 3053 3055 3057 3059 3059 3060 3061 3061 3062 3064 3065 3066 3067 3068 3068 3069 3070 3071 3071 3071 3071 3071 3072 3072 3073 3073 3074 3074 3074 3075 3075 3075 3075 3075 3075 3075 3075 3074 3074 3074 3073 3073 3073 3072 3072 3071 3070 3069 3069 3068 3067 3066 3065 3064 3063 3062 3060 3059 3058
3039 3040 3041 3041 3042 3042 3042 3043 3044 3044 3045 3045 3046 3046 3047 3047 3048 3048 3048 3048 3049 3049 3050 3050 3050 3050 3051 3052 3053 3054 3055 3056 3057 3058 3059 3060 3061 3062 3063 3063 3064 3065 3066 3067 3067 3067 3067 3068 3068 3068 3069 3069 3070 3070 3070 3071 3070 3070 3071 3071 3071 3071 3071 3071 3070 3070 3069 3069 3068 3068 3067 3066 3066 3065 3064 3063 3062 3061 3060 3059 3058 3057 3055 3054 3053
3036 3036 3037 3038 3038 3039 3039 3040 3040 3041 3041 3042 3042 3043 3043 3044 3044 3045 3045 3046 3046 3046 3047 3047 3047 3047 3047 3048 3048 3050 3051 3053 3054 3055 3055 3056 3057 3057 3058 3058 3059 3060 3061 3062 3063 3063 3063 3064 3064 3065 3065 3065 3066 3066 3066 3066 3066 3066 3066 3066 3066 3067 3067 3067 3066 3066 3065 3064 3064 3063 3063 3062 3061 3060 3059 3058 3057 3056 3055 3054 3053 3051 3050 3049 3048
3032 3032 3033 3034 3035 3035 3036 3037 3037 3038 3038 3039 3039 3040 3040 3041 3042 3043 3043 3043 3043 3043 3043 3043 3043 3043 3044 3044 3045 3046 3047 3048 3049 3050 3050 3051 3051 3052 3052 3052 3053 3055 3057 3059 3059 3059 3059 3060 3061 3061 3061 3062 3062 3062 3062 3062 3062 3062 3062 3063 3063 3063 3063 3063 3062 3061 3060 3060 3059 3059 3058 3057 3056 3055 3054 3053 3052 3051 3049 3048 3047 3046 3045 3044 3043
3028 3029 3030 3031 3032 3033 3033 3033 3034 3035 3035 3036 3036 3037 3038 3039 3040 3040 3040 3040 3040 3040 3040 3040 3040 3040 3040 3041 3041 3042 3043 3044 3045 3045 3045 3045 3046 3046 3047 3048 3049 3051 3054 3055 3055 3055 3056 3057 3058 3059 3059 3059 3059 3059 3059 3059 3059 3059 3059 3060 3059 3059 3059 3059 3058 3057 3056 3056 3055 3054 3053 3052 3051 3050 3049 3048 3047 3045 3044 3043 3042 3041 3040 3038 3037
3025 3026 3027 3028 3029 3030 3030 3030 3031 3032 3032 3033 3033 3034 3035 3036 3036 3036 3036 3036 3037 3037 3036 3037 3037 3037 3037 3037 3038 3039 3040 3040 3041 3041 3042 3042 3042 3043 3044 3045 3046 3048 3050 3051 3052 3053 3053 3054 3055 3055 3055 3055 3055 3055 3056 3056 3056 3056 3056 3056 3056 3055 3055 3054 3053 3053 3052 3051 3050 3049 3048 3047 3046 3045 3044 3043 3041 3040 3039 3038 3037 3036 3035 3033 3032
3022 3023 3024 3025 3026 3026 3026 3027 3028 3029 3029 3029 3030 3031 3032 3032 3032 3032 3032 3033 3033 3033 3033 3033 3033 3033 3033 3034 3034 3035 3036 3036 3037 3038 3039 3039 3039 3040 3041 3042 3043 3044 3046 3048 3049 3050 3050 3050 3050 3051 3051 3052 3052 3052 3052 3053 3052 3052 3052 3052 3052 3051 3050 3050 3049 3048 3047 3046 3045 3044 3043 3042 3041 3040 3039 3038 3037 3036 3034 3033 3032 3031 3030 3029 3028
3019 3020 3021 3022 3023 3023 3023 3024 3025 3025 3026 3026 3027 3028 3028 3028 3029 3029 3029 3029 3029 3029 3029 3029 3029 3029 3029 3030 3030 3031 3032 3033 3034 3035 3036 3036 3036 3037 3038 3039 3040 3042 3043 3045 3045 3046 3046 3046 3047 3048 3049 3049 3049 3050 3049 3049 3049 3049 3048 3048 3047 3047 3046 3045 3044 3044 3042 3041 3040 3039 3038 3037 3036 3035 3034 3033 3032 3031 3029 3028 3027 3026 3025 3023 3022
3016 3017 3018 3018 3019 3020 3020 3021 3022 3023 3023 3024 3024 3025 3025 3025 3025 3025 3026 3026 3026 3025 3025 3025 3026 3026 3026 3026 3026 3027 3028 3029 3031 3031 3032 3033 3034 3035 3036 3036 3037 3039 3040 3041 3042 3043 3043 3044 3045 3046 3046 3046 3046 3046 3046 3045 3045 3045 3044 3044 3043 3042 3041 3041 3040 3039 3038 3036 3035 3034 3033 3032 3031 3030 3029 3028 3027 3026 3025 3023 3022 3021 3019 3018 3016
3013 3014 3014 3015 3016 3017 3017 3018 3019 3020 3020 3020 3021 3021 3021 3022 3022 3022 3022 3022 3022 3022 3022 3022 3022 3022 3022 3023 3023 3023 3025 3026 3028 3029 3030 3031 3032 3032 3033 3034 3035 3036 3037 3038 3040 3041 3042 3042 3042 3042 3042 3042 3042 3042 3041 3041 3041 3040 3040 3039 3038 3037 3037 3036 3035 3034 3033 3032 3031 3030 3029 3028 3027 3026 3025 3024 3022 3021 3019 3018 3017 3015 3014 3012 3011